Find Kosmos-1853

NORAD ID: 18114 Int'l Des: 1987-051 Owner: UNKS Country: SU operational
LEOCIRCULAR

現在のビュー

3D地球を読み込み中...

Kosmos-1853について

説明を読み込み中...

次回通過

Passes for default location (London). Set your location on the main map for personalized predictions.

高度履歴

Loading altitude history...

軌道要素

1 18114U 87051B 26151.20607374 -.00000016 00000-0 15888-5 0 9993
2 18114 74.0047 71.1633 0006726 213.3055 256.9011 12.47019147773399
Epoch: May 31, 2026 • Age: 9 hours

現在のステータス

高度 1501.1 km
速度 7.11 km/s
衛星直下点 -72.44°S, 85.87°W
打ち上げ日 Jun 16, 1987
運用期間 38.9 years
タイプ other

技術仕様

分類 Payload
質量 60.00 kg
乾燥質量 60.00 kg
総質量 60.00 kg
長さ 0.80 m
直径 0.80 m
スパン 0.80 m
形状 Poly
製造者 NPOPM
バスタイプ Strela-1 11F625
フェーズステータス In Orbit
所有者/国 UNKS/SU

Most Searched